[[[{"header":{"parameterUnit":"kt","parameterCategory":2,"dx":1,"dy":1,"la1":30.253999710083008,"la2":30.299108505249023,"lo1":-89.0895004272461,"lo2":-89.04439544677734,"nx":28,"ny":28,"refTime":"2022-10-10T21:00:00:Z","depth":0,"parameterNumber":1,"parameterNumberName":"U-component_of_WINDS"},"data":[-9.2255,-9.2489,-9.2433,-9.2674,-9.2663,-9.2818,-9.2855,-9.2896,-9.2915,-9.3092,-9.3183,-9.3149,-9.3144,-9.3239,-9.3334,-9.3316,-9.3363,-9.3487,-9.3445,-9.2939,-9.2865,-9.2794,-9.2736,-9.3497,-9.3498,-9.3979,-9.3984,-9.3987,-9.189,-9.1883,-9.1994,-9.2062,-9.2156,-9.2002,-9.2043,-9.2132,-9.2274,-9.2298,-9.2384,-9.2535,-9.2646,-9.2596,-9.2694,-9.2801,-9.2735,-9.2832,-9.2825,-9.2827,-9.2282,-9.2221,-9.2885,-9.2884,-9.2884,-9.2884,-9.2884,-9.2884,-9.1211,-9.1354,-9.1361,-9.148,-9.1498,-9.1544,-9.1669,-9.1623,-9.173,-9.1824,-9.1733,-9.1892,-9.1904,-9.1991,-9.2006,-9.2128,-9.2009,-9.2098,-9.2121,-9.2146,-9.2183,-9.1502,-9.2141,-9.2138,-9.2137,-9.2135,-9.2133,0,-9.0697,-9.0639,-9.074,-9.0826,-9.0908,-9.0968,-9.1013,-9.1088,-9.0943,-9.1038,-9.1169,-9.1234,-9.1363,-9.148,-9.1556,-9.1552,-9.1402,-9.1379,-9.144,-9.149,-9.1524,-9.1512,-9.063,-9.1361,-9.1354,-9.1349,-9.1346,-9.1343,-9.001,-9.0182,-9.016,-9.0239,-9.0248,-9.0378,-9.0442,-9.0301,-9.0377,-9.041,-9.0542,-9.0656,-9.074,-9.0959,-9.0901,-9.0998,-9.0926,-9.1212,-9.094,-9.0979,-9.0934,-9.0928,-9.0945,-9.127,-9.1279,-9.1287,-9.1293,0,-8.9629,-8.9532,-8.9779,-8.9739,-8.9734,-8.9922,-8.9887,-9.0022,-8.9961,-9.0139,-9.0172,-9.0077,-9.0207,-9.0102,-9.0229,-9.0171,-9.048,-9.0405,-9.0475,-9.0456,-9.0704,-9.0684,-9.1521,-9.1624,-9.083,-9.0837,-9.0844,0,-8.9007,-8.9237,-8.9079,-8.9228,-8.9478,-8.9329,-8.9582,-8.9553,-8.9559,-8.9698,-8.9508,-8.9642,-8.9485,-8.9605,-8.9518,-8.9751,-8.9773,-8.9744,-8.9719,-8.9763,-8.9768,-8.9804,-8.9769,-8.9651,-8.9647,-8.9643,-8.964,0,-8.8424,-8.8607,-8.8847,-8.8873,-8.8853,-8.8969,-8.8966,-8.897,-8.9035,-8.9101,-8.9142,-8.923,-8.928,-8.9351,-8.924,-8.9059,-8.952,-8.9248,-8.949,-8.9494,-8.9601,-8.9596,-9.036,-8.9634,-8.9633,-8.9632,-8.963,0,-8.7907,-8.7976,-8.8338,-8.8316,-8.837,-8.8527,-8.8603,-8.8713,-8.8732,-8.8687,-8.8737,-8.8599,-8.879,-8.8529,-8.8792,-8.8589,-8.8649,-8.8636,-8.8651,-8.8665,-8.8377,-8.8827,-8.9562,-8.9636,-8.8674,-8.8666,-8.8659,0,-8.7268,-8.7605,-8.7478,-8.7825,-8.7965,-8.7742,-8.7913,-8.7935,-8.7889,-8.8001,-8.7948,-8.8079,-8.7861,-8.7887,-8.803,-8.7983,-8.8247,-8.7943,-8.8111,-8.8119,-8.8117,-8.8791,-8.8929,-8.9411,-8.8556,-8.8566,-8.8574,0,-8.6761,-8.6732,-8.6803,-8.6826,-8.683,-8.6946,-8.7143,-8.7238,-8.732,-8.7364,-8.7527,-8.7704,-8.7548,-8.7593,-8.7489,-8.7644,-8.8064,-8.7456,-8.7454,-8.7572,-8.8493,-8.8623,-8.8705,-8.7959,-8.7972,-8.7982,-8.8492,0,-8.6007,-8.6161,-8.6346,-8.6404,-8.6476,-8.6685,-8.6571,-8.6662,-8.6553,-8.6499,-8.6735,-8.6724,-8.6822,-8.6883,-8.678,-8.7168,-8.7087,-8.6919,-8.666,-8.7102,-8.7267,-8.7335,-8.6422,-8.6414,-8.6407,-8.6401,0,0,-8.5422,-8.564,-8.5494,-8.5679,-8.5731,-8.5495,-8.573,-8.5753,-8.5807,-8.5849,-8.5701,-8.5953,-8.5952,-8.625,-8.6379,-8.6417,-8.6477,-8.6327,-8.6891,-8.6947,-8.6997,-8.7177,-8.7248,-8.6389,-8.6386,-8.6384,-8.6381,0,-8.5123,-8.5124,-8.5356,-8.5373,-8.5393,-8.5323,-8.5379,-8.5357,-8.5333,-8.5562,-8.5365,-8.5492,-8.5697,-8.5722,-8.5762,-8.6287,-8.6133,-8.6325,-8.6647,-8.6824,-8.6889,-8.6946,-8.7136,-8.7205,-8.6364,-8.6365,-8.6366,0,-8.4605,-8.4588,-8.4687,-8.4793,-8.4803,-8.4954,-8.4652,-8.4823,-8.4933,-8.4666,-8.4897,-8.4877,-8.4899,-8.5195,-8.5323,-8.5194,-8.5827,-8.5606,-8.5647,-8.566,-8.5826,-8.5904,-8.5973,-8.5063,-8.5059,-8.5055,0,0,-8.4363,-8.4504,-8.4441,-8.472,-8.474,-8.4639,-8.4707,-8.4605,-8.463,-8.4641,-8.4611,-8.4642,-8.4758,-8.4839,-8.4942,-8.5283,-8.5277,-8.545,-8.5511,-8.5562,-8.5603,-8.5783,-8.586,-8.504,-8.504,-8.5039,0,0,-8.4247,-8.4184,-8.407,-8.4379,-8.4409,-8.4365,-8.4541,-8.44,-8.4481,-8.4444,-8.4282,-8.4283,-8.4557,-8.4544,-8.4352,-8.4848,-8.4593,-8.4637,-8.4847,-8.4923,-8.4983,-8.4982,-8.4044,0,0,0,0,0,-8.3882,-8.4191,-8.4088,-8.4123,-8.4255,-8.4422,-8.4438,-8.4311,-8.4132,-8.4274,-8.4226,-8.4055,-8.4407,-8.4233,-8.427,-8.4487,-8.4842,-8.4877,-8.491,-8.5261,-8.5341,-8.5409,0,0,0,0,0,0,-8.3895,-8.3937,-8.4079,-8.4052,-8.408,-8.441,-8.4081,-8.4054,-8.4114,-8.4078,-8.407,-8.4055,-8.395,-8.4205,-8.4241,-8.445,-8.4031,-8.4856,-8.4886,-8.4912,-8.5288,-8.5354,-8.5411,0,0,0,0,0,-8.3904,-8.3938,-8.4184,-8.4046,-8.4071,-8.3975,-8.4068,-8.4043,-8.4087,-8.4014,-8.3993,-8.3985,-8.3959,-8.398,-8.4226,-8.4437,-8.4006,-8.4019,-8.4875,-8.4899,-8.492,-8.5321,0,0,0,0,0,0,-8.3911,-8.3917,-8.4186,-8.4189,-8.3919,-8.3954,-8.3954,-8.4035,-8.4016,-8.3999,-8.392,-8.3892,-8.397,-8.3984,-8.4001,-8.444,-8.3985,-8.3999,-8.4008,-8.4893,-8.4911,-8.4928,0,0,0,0,0,0,-8.3897,-8.3921,-8.4187,-8.4035,-8.4018,-8.3935,-8.3936,-8.4125,-8.4019,-8.3922,-8.3898,-8.3908,-8.3944,-8.3989,-8.4001,-8.4302,-8.3969,-8.3982,-8.3992,-8.3997,-8.4908,-8.4922,0,0,0,0,0,0,-8.3905,-8.3925,-8.4033,-8.4021,-8.4006,-8.4027,-8.41,-8.4243,-8.3888,-8.3927,-8.3852,-8.3836,-8.3954,-8.3963,-8.4002,-8.4299,-8.4301,-8.3969,-8.3979,-8.3985,-8.3989,0,0,0,0,0,0,0,-8.3911,-8.3807,-8.417,-8.401,-8.3996,-8.4214,-8.4215,-8.4216,-8.3884,-8.387,-8.3856,-8.3843,-8.3893,-8.3907,-8.3922,-8.4297,0,0,-8.3968,-8.3975,0,0,0,0,0,0,0,0,-8.3795,-8.3804,-8.417,-8.417,-8.4171,-8.4214,-8.4215,-8.4216,-8.3882,-8.387,-8.3859,-8.3848,-8.3897,-8.3908,-8.392,0,0,0,0,0,0,0,0,0,0,0,0,0,0,0,-8.417,-8.417,0,-8.4214,-8.4215,-8.4215,-8.388,-8.3871,-8.3861,-8.3852,-8.39,-8.391,-8.392,0,0,0,0,0,0,0,0,0,0,0,0,0,0,0,0,0,0,0,0,0,0,0,0,0,0,0,0,0,0,0,0,0,0,0,0,0,0,0,0,0,0,0,0,0,0,0,0,0,0,0,0,0,0,0,0,0,0,0,0,0,0,0,0,0,0,0,0,0]}],[{"header":{"parameterUnit":"kt","parameterCategory":2,"dx":1,"dy":1,"la1":30.253999710083008,"la2":30.299108505249023,"lo1":-89.0895004272461,"lo2":-89.04439544677734,"nx":28,"ny":28,"refTime":"2022-10-10T21:00:00:Z","depth":0,"parameterNumber":2,"parameterNumberName":"V-component_of_WINDS"},"data":[-6.218,-6.2293,-6.2299,-6.243,-6.2458,-6.2548,-6.2582,-6.2626,-6.2662,-6.2769,-6.2832,-6.2849,-6.2887,-6.2962,-6.3029,-6.3035,-6.3062,-6.3097,-6.3098,-6.2938,-6.2916,-6.2895,-6.2868,-6.3103,-6.3104,-6.3262,-6.3264,-6.3265,-6.2059,-6.2088,-6.216,-6.2233,-6.2294,-6.2264,-6.232,-6.2372,-6.2453,-6.25,-6.2562,-6.2656,-6.2731,-6.2758,-6.2831,-6.2882,-6.2872,-6.2902,-6.2897,-6.2903,-6.2733,-6.2705,-6.2909,-6.2909,-6.2909,-6.2909,-6.2909,-6.2909,-6.184,-6.1908,-6.1957,-6.2034,-6.2073,-6.2122,-6.2187,-6.2207,-6.2277,-6.2355,-6.2348,-6.244,-6.2487,-6.2578,-6.261,-6.2681,-6.2649,-6.2683,-6.2691,-6.2699,-6.2707,-6.2475,-6.2694,-6.2693,-6.2693,-6.2692,-6.2692,0,-6.1682,-6.1682,-6.1752,-6.1824,-6.1881,-6.1937,-6.1989,-6.2029,-6.2032,-6.209,-6.2173,-6.2222,-6.2318,-6.2396,-6.2466,-6.2492,-6.2466,-6.2465,-6.2488,-6.2491,-6.2485,-6.2488,-6.2208,-6.2458,-6.2456,-6.2455,-6.2454,-6.2453,-6.146,-6.1539,-6.1593,-6.1641,-6.1671,-6.1749,-6.1796,-6.1793,-6.1844,-6.1907,-6.1966,-6.2045,-6.2108,-6.224,-6.2262,-6.2333,-6.2321,-6.2416,-6.2332,-6.2332,-6.2321,-6.2315,-6.2322,-6.2432,-6.2434,-6.2437,-6.2438,0,-6.1334,-6.1344,-6.1469,-6.1515,-6.1529,-6.1612,-6.165,-6.1718,-6.173,-6.1824,-6.1846,-6.1865,-6.1946,-6.1953,-6.2048,-6.2048,-6.2182,-6.2169,-6.2165,-6.2162,-6.2246,-6.2237,-6.2522,-6.2558,-6.2316,-6.2318,-6.232,0,-6.1148,-6.1252,-6.1261,-6.1333,-6.1449,-6.1443,-6.1557,-6.1579,-6.162,-6.1694,-6.1666,-6.1736,-6.1734,-6.1805,-6.1806,-6.1916,-6.1935,-6.1941,-6.194,-6.1943,-6.1942,-6.1969,-6.1957,-6.1937,-6.1935,-6.1934,-6.1933,0,-6.0948,-6.1077,-6.1194,-6.1225,-6.1284,-6.1339,-6.1366,-6.1413,-6.146,-6.1521,-6.1551,-6.1623,-6.1662,-6.1718,-6.1719,-6.1661,-6.1855,-6.1776,-6.1861,-6.1861,-6.1903,-6.19,-6.2151,-6.1931,-6.1931,-6.193,-6.193,0,-6.0799,-6.0863,-6.1032,-6.108,-6.1114,-6.1192,-6.1262,-6.1331,-6.1382,-6.1388,-6.1436,-6.1418,-6.1516,-6.1437,-6.1572,-6.1497,-6.1537,-6.1552,-6.1559,-6.1567,-6.1478,-6.1617,-6.1856,-6.1881,-6.1575,-6.1572,-6.1569,0,-6.0567,-6.0741,-6.0738,-6.0899,-6.098,-6.0942,-6.1028,-6.1075,-6.109,-6.116,-6.1176,-6.1257,-6.1199,-6.1225,-6.1291,-6.1311,-6.1409,-6.1298,-6.1397,-6.1401,-6.1383,-6.1604,-6.1637,-6.1803,-6.1532,-6.1536,-6.1539,0,-6.0388,-6.0461,-6.049,-6.0525,-6.0587,-6.0655,-6.0754,-6.0833,-6.0879,-6.0936,-6.1018,-6.1132,-6.1092,-6.1136,-6.1129,-6.1198,-6.1343,-6.1147,-6.1148,-6.118,-6.1514,-6.1545,-6.1573,-6.1323,-6.1327,-6.1331,-6.1509,0,-6.0157,-6.0246,-6.0326,-6.0405,-6.0459,-6.0561,-6.057,-6.0625,-6.0612,-6.0626,-6.0748,-6.0789,-6.0869,-6.0903,-6.0893,-6.1048,-6.1023,-6.098,-6.0903,-6.1049,-6.1107,-6.1131,-6.0815,-6.0813,-6.0811,-6.0809,0,0,-5.9931,-6.0059,-6.0054,-6.0151,-6.0195,-6.0156,-6.0264,-6.0303,-6.0384,-6.0415,-6.0372,-6.0539,-6.0575,-6.0721,-6.0767,-6.08,-6.0828,-6.0778,-6.098,-6.0999,-6.1016,-6.1079,-6.1104,-6.0806,-6.0805,-6.0805,-6.0804,0,-5.9848,-5.9887,-5.9995,-6.0036,-6.0095,-6.0105,-6.0131,-6.0183,-6.0197,-6.0317,-6.0282,-6.0356,-6.0491,-6.0532,-6.0571,-6.076,-6.0729,-6.0785,-6.0883,-6.0961,-6.0982,-6.1001,-6.1067,-6.1091,-6.08,-6.08,-6.08,0,-5.9672,-5.9711,-5.9765,-5.9867,-5.9906,-5.9991,-5.9912,-6.0007,-6.0069,-6.0021,-6.014,-6.0165,-6.0221,-6.036,-6.0422,-6.0385,-6.0638,-6.0561,-6.0573,-6.058,-6.0655,-6.0681,-6.0704,-6.0401,-6.0399,-6.0398,0,0,-5.9599,-5.9683,-5.9724,-5.985,-5.9877,-5.9894,-5.994,-5.9933,-5.9985,-6.0007,-6.0037,-6.0089,-6.0166,-6.0218,-6.0291,-6.0443,-6.0453,-6.0511,-6.053,-6.0546,-6.0561,-6.064,-6.0666,-6.0393,-6.0393,-6.0392,0,0,-5.9564,-5.9617,-5.9595,-5.9743,-5.9794,-5.9842,-5.9919,-5.9893,-5.9961,-5.995,-5.9942,-5.9955,-6.0085,-6.0111,-6.0037,-6.0264,-6.0187,-6.0205,-6.0242,-6.0266,-6.0285,-6.0275,-5.9962,0,0,0,0,0,-5.9484,-5.961,-5.959,-5.9616,-5.9746,-5.9853,-5.987,-5.9866,-5.9812,-5.9872,-5.9893,-5.9857,-6.0069,-6.0004,-6.003,-6.0111,-6.0323,-6.0336,-6.0347,-6.0431,-6.0456,-6.0477,0,0,0,0,0,0,-5.9494,-5.9526,-5.9587,-5.9641,-5.967,-5.9849,-5.9756,-5.9758,-5.9805,-5.9797,-5.9854,-5.9859,-5.9858,-5.9991,-6.0014,-6.0091,-5.9954,-6.0328,-6.0339,-6.0348,-6.044,-6.046,-6.0477,0,0,0,0,0,-5.9502,-5.9528,-5.9737,-5.9639,-5.9664,-5.9689,-5.9751,-5.9752,-5.9788,-5.9822,-5.9826,-5.9782,-5.986,-5.9879,-6.0004,-6.0081,-5.9938,-5.9947,-6.0335,-6.0343,-6.0351,-6.045,0,0,0,0,0,0,-5.9508,-5.953,-5.9742,-5.975,-5.9591,-5.9679,-5.9693,-5.9747,-5.9811,-5.9816,-5.9748,-5.9741,-5.9863,-5.9878,-5.9893,-6.0077,-5.9925,-5.9934,-5.9939,-6.0341,-6.0348,-6.0353,0,0,0,0,0,0,-5.9516,-5.9536,-5.9746,-5.9686,-5.9687,-5.967,-5.9682,-5.9788,-5.9812,-5.9733,-5.9729,-5.9744,-5.9841,-5.9877,-5.9888,-6.0054,-5.9915,-5.9923,-5.9929,-5.9933,-6.0347,-6.0352,0,0,0,0,0,0,-5.9524,-5.9542,-5.9684,-5.9685,-5.9685,-5.9769,-5.9763,-5.9897,-5.9761,-5.9731,-5.9749,-5.9743,-5.9841,-5.9853,-5.9886,-6.0047,-6.0053,-5.9915,-5.9921,-5.9925,-5.9928,0,0,0,0,0,0,0,-5.9531,-5.9414,-5.9698,-5.9684,-5.9684,-5.9819,-5.9821,-5.9823,-5.976,-5.9755,-5.975,-5.9746,-5.9867,-5.9876,-5.9886,-6.0042,0,0,-5.9914,-5.9919,0,0,0,0,0,0,0,0,-5.9406,-5.9412,-5.9698,-5.97,-5.9701,-5.982,-5.9821,-5.9823,-5.9759,-5.9755,-5.9751,-5.9748,-5.987,-5.9877,-5.9885,0,0,0,0,0,0,0,0,0,0,0,0,0,0,0,-5.9698,-5.97,0,-5.982,-5.9821,-5.9823,-5.9759,-5.9755,-5.9752,-5.9749,-5.9872,-5.9878,-5.9884,0,0,0,0,0,0,0,0,0,0,0,0,0,0,0,0,0,0,0,0,0,0,0,0,0,0,0,0,0,0,0,0,0,0,0,0,0,0,0,0,0,0,0,0,0,0,0,0,0,0,0,0,0,0,0,0,0,0,0,0,0,0,0,0,0,0,0,0,0]}]]]